Hourly Weather Roundup
Issued by NWS Central Illinois

Home | Current Version | Previous Version | Text Only | Print | Product List | Glossary On
Versions: 1 2 3 4 5 6 7 8 9 10 11 12 13 14 15 16 17 18 19 20 21 22 23 24 25 26 27 28 29 30 31 32 33 34 35 36 37 38 39 40 41 42 43 44 45 46 47 48 49 50
000
NZUS43 KILX 272210
HWRILX

AREA WEATHER ROUNDUP
NATIONAL WEATHER SERVICE, LINCOLN IL
500 PM CDT FRI MAR 27 2015


CITY           SKY/WX    TMP DP  RH WIND       PRES   REMARKS
BLOOMINGTON    MOSUNNY   35  13  40 NW9       30.14S WCI  28
CHAMPAIGN      SUNNY     36  10  34 N12       30.11S WCI  28
DECATUR        SUNNY     38  12  34 N16G24    30.14R WCI  29
EFFINGHAM      PTSUNNY   38  15  40 NW14      30.13S WCI  29
FLORA          PTSUNNY   38  19  47 NW15      30.12S WCI  29
GALESBURG      SUNNY     36  10  35 N10       30.16S WCI  28
JACKSONVILLE   SUNNY     41  15  34 NW16      30.14S WCI  33
LACON          MOSUNNY   35  11  37 N6        30.16S WCI  30
LAWRENCEVILLE  PTSUNNY   37  20  50 N14       30.11S WCI  28
LITCHFIELD     MOSUNNY   37  20  50 NW14      30.13S WCI  28
$$


CITY           SKY/WX    TMP DP  RH WIND       PRES   REMARKS
LINCOLN        SUNNY     38  12  34 N10G17    30.16R WCI  31
MACOMB         SUNNY     38  11  33 NW10      30.18F WCI  30
MATTOON        CLOUDY    34  21  59 N16G23    30.11S WCI  24
MT CARMEL AP   PTSUNNY   39  19  45 N14G30    30.10S WCI  31
OLNEY-NOBLE AP CLOUDY    37  21  52 N13G20    30.11S WCI  29
PARIS          PTSUNNY   32  19  57 N8        30.12S WCI  25
PEORIA         SUNNY     37  11  34 N13G18    30.16S WCI  29
PONTIAC        SUNNY     35  14  41 NW10G20   30.15S WCI  27
RANTOUL        SUNNY     36  10  34 NE14G20   30.12S WCI  27
ROBINSON       PTSUNNY   35  21  55 N17       30.12S WCI  25
SPRINGFIELD    SUNNY     40  13  33 N14       30.15S WCI  32
TAYLORVILLE    SUNNY     36  19  51 N20       30.14S WCI  25
$$

...REGIONAL REPORTS...


CITY           SKY/WX    TMP DP  RH WIND       PRES   REMARKS
CHICAGO O`HARE MOSUNNY   29  13  51 NE14      30.15S WCI  18
KANKAKEE       MOSUNNY   32  14  47 N10       30.14S WCI  24
MOLINE         SUNNY     38   8  29 VRB5      30.16F WCI  34
MOUNT VERNON   PTSUNNY   37  18  44 NW7       30.14R WCI  32
PITTSFIELD     FAIR      41  19  40 N10G20    30.15S WCI  35
QUINCY         SUNNY     41  13  31 N7        30.14F
ROCKFORD       SUNNY     35   6  29 N13       30.17S WCI  26
$$


CITY           SKY/WX    TMP DP  RH WIND       PRES   REMARKS
BURLINGTON     SUNNY     39   9  29 N12       30.16F WCI  32
CEDAR RAPIDS   SUNNY     37   8  30 NW9       30.15F WCI  30
DES MOINES     CLOUDY    40   8  26 NE5       30.15F
KIRKSVILLE     MOSUNNY   42  12  29 N9        30.15F
OTTUMWA        SUNNY     40   7  25 MISG      30.15F
ST LOUIS       MOSUNNY   44  21  40 N14G20    30.15F
$$


CITY           SKY/WX    TMP DP  RH WIND       PRES   REMARKS
TERRE HAUTE    CLOUDY    33  22  63 NW14      30.11S WCI  23
EVANSVILLE     CLOUDY    40  20  44 N12G20    30.10S WCI  33
INDIANAPOLIS   PTSUNNY   31  14  49 NW16      30.06S WCI  20
LAFAYETTE      FLURRIES  28  16  60 N17G24    30.12S WCI  16
MADISON        SUNNY     35   4  27 N8        30.15S WCI  29
MILWAUKEE      MOSUNNY   27  12  53 NE16G24   30.17S WCI  15
$$





USA.gov is the U.S. government's official web portal to all federal, state and local government web resources and services.